Dauntless Aviation
Greetings, Guest! To participate, [sign up for a free account] or [log in]
Airports Europe France
LFIY

Saint Jean d'Angely

FRANCE

Airport Info
Edit

Location

Latitude / Longitude: 45°57'59"N / 0°31'31"W
  45°57.984'N / 0°31.518'W
  45.9664 / -0.5253

Runway Information

Runway 10 /28

Dimensions: 2789 x 164 ft.
Surface: U
 
Runway 10
Runway 28
Latitude: 45.966636 45.965728
Longitude: -0.528086 -0.518369
Elevation: 243 ft. 243 ft.
Runway true heading: 95.7 275.7
 

Instrument Procedures

IAPs (Instrument Approach Procedures)

  Visual Approch Chart
Satellite photo at:
Airport distance calculator
From:
Weather Reports

METAR

LFBG
20.0nm SE
LFBG 191930Z AUTO 00000KT 9999 NSC 22/14 Q1012
LFBH
27.2nm W
LFBH 191930Z AUTO 13004KT 9999 NSC 20/15 Q1011

TAF

LFBG
20.0nm SE
TAF LFBG 191700Z 1918/2018 12008KT CAVOK TEMPO 1918/2002 6000 SHRA SCT030 BKN060TCU PROB40 TEMPO 1918/2002 VRB20G30KT 2000 TSRA SCT015 BKN040CB BECMG 2012/2014 20010KT
LFBH
27.2nm W
TAF LFBH 191700Z 1918/2018 20008KT CAVOK BECMG 1921/1924 14010KT BECMG 2012/2014 24010KT TEMPO 2010/2016 FEW040CB
Safelog

 

Dauntless Aviation

© 2007-2014 Dauntless Aviation, all rights reserved
Information provided via PilotNav comes from a variety of official and unofficial data sources. As errors are possible, do not use PilotNav for primary flight planning purposes. Verify any information that you receive via PilotNav with current and canonical charts and other official documents. The material in this database is subject to database copyrights held by Dauntless Aviation and may not be copied without the express permission of Dauntless Aviation - licenses for use of part of all of this data are available for purchase; enquire via the Dauntless Aviation helpdesk. A number of mechanisms and markers exist in the database to protect against and identify infringement / copyright. Automated queries against this website are stictly prohibited, and all activity is logged and analyzed.